Vertical_Velocity
-1 -2 -2 -2 -2 -2 -2 -2 -2 -1 -1 -1 -1 -1 -1 -1 -1 -1 -1 -1 -1 -1 -1 -1 -1 -1 -1 -1 -1 -1 -1 -1 -1 -1 -0 -0 -0 -0 -0 -0 -0 -0 -0 -0 -0 -0 -0 0 0 1 1 1 1 1 1 1 1 0 0 0 0 -0 -3 -3 -2 -2 -2 -3 -3 -3 -2 -1 -1 -1 -1 -1 -1 -1 -1 -1 -1 -1 -1 -1 -1 -1 -1 -0 -0 -0 -0 -0 -1 -1 -1 -1 -1 -1 -1 -1 -1 -1 -1
-1 -1 -2 -2 -1 -1 -1 -1 -1 -1 -1 -1 -1 -1 -1 -1 -1 -1 -1 -1 -1 -1 -1 -1 -1 -1 -1 -1 -1 -1 -1 -1 -1 -1 -1 -1 -1 -1 -1 -0 -0 -0 -0 -0 -0 -0 -0 0 0 0 0 0 1 1 1 1 1 1 1 0 1 0 -2 -2 -2 -2 -2 -2 -3 -3 -3 -2 -2 -1 -1 -1 -1 -1 -1 -1 -1 -1 -1 -1 -1 -1 -1 -1 -1 -0 -0 -0 -0 -1 -1 -1 -1 -1 -1 -2 -2 -2 -2
-1 -1 -2 -2 -2 -2 -1 -1 -1 -1 -1 -1 -1 -1 -1 -0 -0 -0 -1 -1 -1 -1 -1 -1 -1 -1 -1 -1 -1 -1 -1 -1 -1 -1 -1 -1 -1 -1 -1 -1 -1 -0 -0 -0 -0 -0 -0 -0 0 0 0 0 0 1 1 1 1 1 1 0 1 1 -0 -1 -1 -1 -1 -2 -2 -2 -3 -4 -3 -2 -2 -2 -1 -1 -1 -1 -1 -1 -1 -1 -1 -1 -1 -1 -1 -1 -0 -0 -1 -1 -1 -1 -1 -1 -1 -1 -2 -2 -2
-1 -1 -1 -2 -2 -2 -1 -1 -1 -1 -1 -1 -1 -1 -1 -0 -0 -0 -0 -1 -1 -1 -1 -1 -1 -1 -1 -1 -1 -1 -1 -1 -1 -1 -1 -1 -1 -1 -1 -1 -1 -1 -1 -1 -1 -0 -0 -0 -0 -0 -0 -0 0 0 0 0 0 0 0 0 0 0 0 -0 -0 -1 -1 -1 -2 -2 -2 -3 -4 -4 -4 -3 -2 -2 -1 -1 -1 -1 -1 -1 -1 -1 -1 -1 -1 -1 -1 -1 -1 -1 -1 -1 -1 -1 -1 -1 -1 -1 -2
-1 -1 -2 -2 -2 -2 -1 -1 -1 -1 -1 -1 -1 -1 -0 -0 -0 -0 -1 -1 -1 -1 -1 -1 -1 -1 -1 -1 -1 -1 -1 -1 -1 -1 -1 -1 -1 -1 -1 -1 -1 -1 -1 -1 -1 -1 -1 -1 -0 -0 -0 -0 -0 -0 0 0 -0 -0 0 -0 0 0 1 0 -0 -0 -1 -1 -1 -2 -2 -2 -2 -3 -3 -3 -4 -4 -3 -3 -2 -2 -1 -1 -1 -0 -1 -1 -1 -1 -1 -1 -1 -1 -1 -1 -1 -0 -1 -1 -1 -1 -1
-2 -2 -2 -2 -2 -2 -1 -1 -1 -1 -1 -1 -1 -1 -1 -0 -0 -0 -1 -1 -1 -1 -1 -1 -1 -1 -1 -1 -1 -1 -1 -1 -1 -1 -1 -1 -1 -1 -1 -1 -1 -1 -1 -1 -1 -1 -1 -1 -1 -1 -1 -1 -0 -0 -0 -0 -0 -0 -0 -0 -0 -0 1 1 0 -0 -0 -1 -1 -1 -2 -2 -2 -2 -2 -2 -2 -2 -4 -4 -4 -4 -3 -2 -2 -1 -1 -1 -1 -1 -1 -1 -1 -1 -1 -1 -0 -0 -1 -0 -0 -0 -1
-2 -2 -2 -2 -2 -2 -2 -2 -2 -1 -1 -1 -1 -1 -1 -1 -1 -1 -1 -1 -1 -1 -1 -1 -1 -1 -1 -1 -1 -1 -1 -1 -1 -1 -1 -1 -1 -1 -1 -1 -1 -1 -1 -1 -1 -1 -1 -1 -1 -1 -1 -1 -1 -1 -1 -1 -1 -0 -0 -0 -1 -0 0 0 -0 -0 -0 -1 -1 -1 -1 -2 -2 -2 -1 -1 -1 -1 -2 -3 -4 -4 -4 -4 -4 -3 -3 -2 -1 -1 -1 -1 -1 -1 -1 -1 -1 -0 -0 -1 -0 -0 -0
-2 -2 -2 -2 -2 -2 -2 -2 -2 -2 -2 -1 -1 -1 -1 -1 -1 -1 -1 -1 -1 -1 -1 -1 -1 -1 -1 -1 -1 -1 -1 -1 -1 -1 -1 -1 -1 -1 -1 -1 -1 -1 -1 -1 -1 -1 -1 -1 -1 -1 -1 -1 -1 -1 -1 -1 -1 -1 -1 -1 -1 -1 -0 -0 -0 -1 -1 -1 -1 -1 -1 -1 -2 -2 -2 -1 -1 -0 -1 -1 -2 -2 -2 -3 -3 -3 -4 -4 -4 -3 -2 -1 -1 -1 -1 -1 -1 -1 -1 -1 -1 -1 -1
-2 -2 -2 -2 -2 -2 -2 -2 -2 -2 -2 -2 -2 -1 -1 -1 -1 -1 -1 -1 -1 -1 -1 -1 -1 -1 -1 -1 -1 -1 -1 -1 -1 -1 -1 -1 -1 -1 -1 -1 -1 -2 -2 -2 -2 -2 -1 -1 -1 -1 -1 -1 -1 -1 -1 -1 -1 -1 -1 -1 -1 -1 -1 -0 -0 -1 -1 -1 -1 -1 -1 -1 -1 -1 -2 -2 -1 -1 -1 -2 -2 -1 -1 -1 -1 -1 -2 -3 -4 -4 -4 -3 -2 -2 -1 -1 -1 -1 -1 -1 -1 -1 -0
-2 -2 -2 -2 -2 -2 -2 -2 -2 -2 -2 -2 -2 -2 -2 -2 -1 -1 -1 -1 -1 -1 -1 -1 -1 -1 -1 -1 -1 -1 -1 -1 -1 -1 -1 -1 -1 -2 -2 -2 -2 -2 -2 -2 -2 -2 -2 -2 -2 -2 -2 -1 -1 -1 -1 -1 -1 -1 -1 -1 -1 -1 -1 -1 -1 -1 -1 -1 -1 -1 -1 -1 -1 -1 -2 -2 -2 -2 -2 -2 -2 -2 -1 -0 -0 -0 -1 -1 -2 -3 -4 -4 -4 -4 -3 -2 -2 -1 -1 -1 -1 -1 -0
-2 -2 -2 -2 -2 -2 -2 -2 -2 -2 -2 -2 -2 -2 -2 -2 -1 -1 -1 -1 -1 -1 -1 -1 -1 -1 -1 -1 -1 -1 -2 -2 -2 -2 -2 -2 -2 -2 -2 -2 -2 -2 -2 -2 -2 -2 -2 -2 -2 -2 -2 -2 -2 -2 -2 -2 -2 -2 -2 -2 -2 -2 -1 -1 -2 -2 -2 -2 -2 -2 -2 -1 -1 -2 -2 -3 -3 -3 -3 -3 -2 -2 -2 -1 -0 -0 -0 -1 -1 -1 -1 -2 -3 -3 -4 -4 -4 -3 -2 -1 -1 -0 -0
-2 -2 -2 -2 -2 -2 -2 -2 -2 -2 -2 -2 -2 -2 -2 -1 -1 -1 -1 -1 -1 -1 -1 -1 -1 -1 -1 -1 -1 -1 -2 -2 -2 -2 -2 -2 -2 -2 -2 -2 -2 -2 -2 -2 -2 -2 -2 -2 -2 -2 -2 -2 -2 -2 -2 -2 -2 -2 -2 -2 -2 -2 -2 -2 -2 -2 -2 -2 -2 -2 -2 -2 -2 -2 -2 -2 -3 -4 -3 -2 -2 -2 -3 -2 -1 -1 -1 -1 -1 -1 -1 -1 -1 -2 -2 -3 -4 -5 -4 -4 -3 -2 -1
-2 -2 -2 -3 -2 -2 -2 -2 -2 -2 -2 -2 -2 -2 -2 -1 -1 -1 -1 -1 -1 -1 -1 -1 -1 -1 -1 -1 -2 -2 -2 -2 -2 -2 -2 -2 -2 -2 -2 -2 -2 -2 -2 -2 -2 -2 -2 -2 -2 -2 -2 -2 -2 -2 -2 -2 -2 -2 -2 -2 -2 -3 -3 -3 -3 -3 -3 -3 -3 -3 -3 -3 -3 -3 -3 -3 -3 -3 -3 -2 -3 -3 -3 -3 -2 -1 -2 -2 -2 -2 -1 -1 -2 -2 -1 -1 -2 -3 -4 -5 -5 -4 -4
-2 -2 -2 -2 -2 -2 -2 -2 -2 -2 -2 -1 -1 -1 -1 -1 -1 -2 -2 -2 -2 -1 -1 -1 -1 -1 -1 -1 -2 -2 -2 -2 -2 -2 -2 -2 -2 -2 -2 -2 -2 -2 -2 -2 -2 -2 -2 -2 -2 -2 -2 -2 -2 -2 -2 -2 -2 -2 -2 -2 -3 -3 -3 -3 -3 -3 -3 -3 -3 -3 -3 -3 -3 -3 -3 -3 -3 -3 -3 -2 -3 -3 -4 -3 -2 -2 -2 -3 -3 -3 -2 -2 -2 -2 -2 -1 -1 -2 -2 -3 -4 -4 -5
-2 -2 -2 -2 -2 -2 -2 -2 -2 -1 -1 -1 -1 -1 -1 -1 -2 -2 -2 -2 -2 -2 -2 -2 -2 -1 -1 -1 -2 -2 -2 -2 -2 -2 -2 -2 -2 -2 -2 -2 -2 -2 -2 -2 -2 -2 -2 -2 -2 -2 -2 -2 -2 -2 -2 -2 -2 -2 -2 -3 -3 -3 -3 -3 -3 -3 -3 -2 -2 -3 -3 -3 -3 -3 -3 -3 -3 -3 -2 -3 -3 -3 -4 -3 -3 -2 -3 -4 -4 -3 -3 -3 -3 -3 -3 -2 -2 -2 -2 -2 -2 -3 -3
-2 -2 -2 -2 -2 -2 -2 -1 -1 -1 -1 -1 -1 -1 -1 -1 -2 -2 -2 -2 -2 -2 -2 -2 -2 -2 -1 -1 -1 -2 -2 -1 -1 -2 -2 -2 -2 -2 -2 -2 -2 -2 -2 -2 -2 -2 -2 -2 -2 -2 -2 -2 -2 -2 -2 -2 -2 -2 -2 -2 -3 -3 -3 -3 -3 -2 -2 -2 -2 -2 -2 -3 -3 -2 -2 -2 -2 -2 -2 -2 -3 -3 -3 -3 -3 -2 -3 -4 -4 -4 -3 -3 -3 -3 -3 -2 -2 -3 -3 -2 -2 -2 -3
-2 -2 -2 -2 -2 -2 -1 -1 -1 -1 -1 -1 -1 -1 -1 -1 -1 -2 -2 -2 -2 -2 -2 -2 -2 -2 -2 -1 -1 -1 -2 -1 -1 -2 -2 -2 -2 -2 -2 -2 -2 -2 -2 -2 -2 -2 -2 -2 -2 -2 -2 -2 -2 -2 -2 -2 -2 -2 -2 -2 -3 -3 -3 -3 -3 -2 -2 -2 -2 -2 -2 -2 -2 -2 -2 -2 -2 -2 -2 -2 -2 -2 -2 -2 -2 -2 -3 -3 -4 -4 -3 -3 -4 -4 -3 -3 -3 -3 -3 -3 -3 -3 -3
-2 -2 -2 -2 -2 -1 -1 -1 -1 -1 -1 -1 -1 -1 -2 -2 -2 -2 -2 -2 -2 -2 -2 -2 -2 -2 -2 -2 -1 -1 -1 -1 -1 -1 -2 -2 -2 -2 -2 -2 -2 -2 -2 -2 -2 -2 -2 -2 -2 -2 -2 -2 -2 -2 -2 -2 -2 -2 -2 -2 -2 -3 -3 -3 -3 -2 -2 -2 -2 -2 -2 -2 -2 -2 -2 -2 -2 -2 -1 -2 -2 -2 -2 -2 -2 -2 -2 -3 -3 -3 -3 -3 -4 -4 -3 -3 -3 -3 -3 -3 -3 -3 -3
-2 -2 -2 -2 -2 -1 -1 -1 -1 -2 -2 -2 -2 -2 -2 -2 -2 -2 -2 -2 -2 -2 -2 -2 -2 -2 -2 -2 -2 -2 -2 -1 -1 -1 -1 -1 -2 -2 -2 -2 -2 -2 -2 -2 -2 -2 -2 -2 -2 -2 -2 -2 -2 -2 -2 -2 -2 -2 -2 -2 -2 -2 -2 -3 -2 -2 -2 -2 -2 -2 -2 -2 -2 -1 -1 -2 -2 -1 -1 -1 -2 -2 -2 -2 -1 -1 -2 -2 -2 -2 -2 -3 -3 -3 -3 -3 -3 -3 -3 -3 -3 -3 -4
-3 -2 -2 -2 -2 -1 -2 -2 -2 -2 -2 -2 -2 -2 -2 -2 -2 -2 -2 -2 -2 -2 -2 -2 -2 -2 -2 -2 -2 -2 -2 -2 -1 -1 -1 -1 -1 -2 -2 -2 -2 -2 -2 -2 -2 -2 -2 -2 -2 -2 -2 -2 -2 -2 -2 -2 -2 -2 -2 -2 -2 -2 -2 -2 -2 -2 -2 -2 -2 -2 -2 -2 -2 -2 -2 -2 -2 -1 -1 -1 -1 -1 -1 -2 -1 -1 -1 -1 -1 -2 -2 -2 -3 -3 -3 -3 -3 -3 -3 -4 -4 -4 -4
-2 -2 -2 -2 -2 -1 -2 -2 -2 -2 -2 -2 -2 -2 -2 -2 -2 -2 -2 -2 -2 -2 -2 -2 -2 -2 -2 -2 -2 -2 -2 -2 -2 -2 -1 -1 -1 -1 -2 -1 -1 -1 -1 -2 -2 -2 -2 -2 -2 -2 -2 -2 -2 -2 -2 -2 -2 -2 -2 -2 -2 -2 -2 -2 -2 -2 -2 -2 -2 -2 -2 -2 -2 -2 -2 -2 -2 -2 -2 -1 -1 -2 -1 -1 -1 -1 -1 -1 -1 -1 -1 -2 -2 -3 -2 -2 -2 -2 -2 -3 -3 -4 -4
-1 -2 -2 -2 -2 -1 -1 -1 -2 -2 -2 -2 -2 -2 -1 -2 -2 -2 -2 -2 -2 -2 -2 -2 -2 -2 -2 -2 -2 -2 -2 -2 -2 -2 -2 -2 -2 -2 -1 -1 -1 -1 -1 -1 -2 -2 -2 -2 -2 -2 -2 -2 -2 -2 -2 -2 -2 -2 -2 -2 -2 -2 -2 -2 -2 -2 -3 -2 -2 -2 -2 -2 -2 -2 -2 -2 -2 -2 -1 -1 -1 -1 -1 -1 -1 -1 -1 -1 -1 -1 -1 -1 -2 -2 -2 -2 -2 -2 -3 -3 -3 -3 -3
-1 -1 -2 -2 -2 -1 -1 -1 -1 -1 -1 -2 -2 -1 -1 -1 -1 -2 -2 -2 -2 -2 -2 -2 -2 -2 -2 -2 -2 -2 -2 -2 -2 -2 -2 -2 -2 -2 -2 -1 -1 -1 -1 -1 -1 -2 -2 -2 -2 -2 -2 -2 -2 -2 -2 -2 -2 -2 -2 -2 -2 -2 -2 -2 -2 -2 -2 -2 -2 -2 -2 -2 -2 -2 -2 -2 -2 -2 -1 -1 -1 -1 -1 -1 -1 -0 -0 -0 -0 -0 -0 -1 -1 -2 -2 -2 -2 -2 -3 -3 -3 -3 -2
-0 -1 -1 -1 -1 -1 -1 -1 -1 -1 -1 -2 -2 -1 -1 -1 -1 -1 -2 -2 -2 -2 -2 -1 -1 -1 -2 -2 -2 -2 -2 -2 -2 -2 -2 -2 -2 -2 -2 -2 -1 -1 -1 -1 -1 -1 -2 -2 -2 -2 -2 -2 -2 -2 -2 -2 -2 -2 -2 -2 -2 -2 -2 -2 -2 -2 -2 -2 -2 -2 -2 -2 -2 -2 -2 -2 -2 -2 -1 -1 -1 -1 -1 -1 -1 -0 -0 -0 -0 -0 -0 -1 -1 -1 -2 -2 -1 -1 -2 -2 -3 -2 -2
-1 -1 -1 -1 -1 -1 -1 -1 -1 -1 -1 -2 -2 -1 -1 -1 -1 -1 -1 -1 -1 -1 -1 -1 -1 -1 -1 -1 -1 -2 -2 -2 -2 -2 -2 -2 -2 -2 -2 -2 -2 -1 -1 -1 -1 -1 -2 -2 -2 -2 -2 -2 -2 -2 -2 -2 -2 -2 -2 -2 -2 -2 -2 -2 -2 -2 -2 -2 -2 -2 -2 -2 -2 -2 -2 -2 -2 -2 -2 -1 -1 -1 -1 -1 -1 -1 -1 -0 -0 -0 -0 -0 -1 -1 -1 -1 -1 -2 -2 -2 -2 -2 -1
-1 -1 -1 -1 -1 -1 -1 -1 -1 -1 -1 -1 -2 -2 -2 -1 -1 -1 -1 -1 -1 -1 -1 -1 -0 -0 -0 -1 -1 -1 -1 -2 -2 -2 -2 -2 -2 -2 -2 -2 -2 -2 -2 -2 -1 -2 -2 -2 -2 -2 -2 -2 -2 -2 -2 -2 -2 -2 -2 -2 -2 -2 -2 -2 -2 -2 -2 -2 -2 -2 -2 -2 -1 -1 -1 -2 -2 -2 -2 -1 -1 -1 -1 -1 -1 -1 -1 -0 -0 0 -0 -0 -1 -1 -1 -1 -1 -2 -2 -2 -2 -2 -1
-2 -2 -1 -1 -1 -1 -1 -1 -1 -1 -0 -1 -1 -2 -2 -2 -1 -1 -1 -1 -1 -1 -1 -1 -1 -0 -0 -1 -1 -1 -1 -1 -1 -1 -1 -2 -2 -2 -2 -2 -2 -2 -2 -2 -2 -2 -2 -2 -2 -2 -2 -2 -2 -2 -2 -2 -2 -2 -2 -2 -2 -2 -2 -2 -2 -2 -2 -2 -2 -2 -2 -2 -1 -1 -1 -1 -2 -2 -2 -2 -2 -1 -1 -1 -1 -1 -2 -1 -0 0 -0 -0 -1 -1 -0 -0 -1 -1 -1 -2 -2 -2 -1
-2 -2 -1 -1 -1 -1 -1 -1 -1 -0 -0 -0 -1 -2 -2 -2 -1 -1 -1 -1 -1 -1 -1 -1 -1 -1 -0 -1 -1 -1 -1 -1 -1 -1 -1 -1 -1 -2 -2 -2 -2 -2 -3 -2 -2 -2 -2 -2 -2 -2 -2 -2 -2 -2 -2 -2 -2 -2 -2 -2 -2 -2 -2 -2 -2 -2 -2 -2 -2 -2 -2 -2 -2 -1 -1 -1 -2 -2 -2 -2 -2 -2 -1 -1 -1 -1 -1 -1 -0 0 0 -0 -1 -1 -0 -0 -0 -1 -1 -2 -2 -1 -0
-2 -2 -1 -1 -1 -1 -1 -0 -0 -0 0 -0 -0 -1 -1 -1 -1 -1 -1 -1 -1 -1 -1 -1 -1 -1 -1 -1 -1 -1 -1 -1 -1 -1 -1 -1 -1 -1 -2 -2 -2 -2 -2 -2 -2 -2 -2 -2 -2 -2 -2 -2 -2 -2 -2 -2 -2 -2 -2 -2 -2 -2 -2 -2 -2 -2 -2 -2 -2 -2 -2 -2 -2 -2 -1 -1 -1 -1 -2 -2 -2 -2 -2 -1 -1 -1 -1 -1 -0 0 0 -0 -1 -1 -1 -1 -1 -1 -2 -2 -2 -1 -0
-2 -1 -1 -1 -1 -2 -1 -0 -0 0 1 0 -0 -0 0 -0 -0 -1 -0 -0 -1 -1 -1 -1 -1 -1 -1 -0 -1 -1 -1 -1 -1 -1 -1 -1 -1 -1 -1 -1 -1 -1 -2 -2 -2 -2 -2 -2 -2 -2 -2 -2 -2 -2 -2 -2 -2 -2 -2 -2 -2 -2 -2 -2 -2 -2 -2 -2 -2 -2 -2 -2 -2 -2 -1 -1 -1 -2 -2 -2 -2 -2 -2 -2 -2 -1 -1 -1 -1 -0 -0 -0 -1 -2 -1 -1 -1 -1 -1 -1 -1 -1 -1
-1 -0 -0 -1 -1 -2 -1 -1 -0 0 0 -0 -0 1 1 1 -0 -1 -0 -0 -1 -1 -1 -1 -1 -1 -0 -0 -0 -0 -1 -1 -1 -1 -1 -1 -1 -1 -1 -1 -1 -1 -1 -1 -1 -1 -2 -2 -2 -2 -2 -2 -2 -2 -2 -2 -2 -1 -1 -1 -1 -1 -1 -1 -1 -1 -1 -2 -2 -2 -2 -2 -2 -2 -2 -2 -2 -2 -2 -2 -2 -2 -2 -2 -2 -2 -2 -2 -1 -0 -0 -0 -0 -1 -1 -1 -2 -2 -1 -1 -1 -1 -1
-0 -0 -0 -1 -2 -2 -1 -1 -1 -0 0 -0 -0 1 2 1 -0 -1 -0 -1 -1 -1 -0 -0 -0 -0 -0 -0 -0 -0 -1 -1 -1 -1 -1 -1 -1 -1 -1 -1 -1 -1 -1 -1 -1 -1 -1 -1 -1 -1 -2 -2 -2 -2 -2 -2 -2 -1 -1 -1 -1 -1 -1 -1 -1 -1 -1 -1 -1 -2 -2 -2 -2 -2 -2 -2 -2 -2 -2 -2 -2 -3 -3 -3 -2 -2 -2 -2 -1 -0 -0 -0 -0 -0 -0 -1 -1 -2 -2 -1 -2 -2 -2
-0 -0 -1 -1 -1 -1 -0 -1 -1 -1 0 -0 -0 1 1 1 0 -0 -1 -1 -1 -0 -0 -0 -0 -0 -0 -0 0 0 -1 -1 -1 -1 -1 -1 -1 -1 -1 -1 -1 -1 -1 -1 -1 -1 -1 -1 -1 -1 -1 -2 -2 -2 -2 -2 -2 -2 -1 -1 -1 -1 -1 -2 -1 -1 -1 -1 -1 -2 -2 -2 -2 -2 -2 -2 -2 -2 -2 -3 -3 -3 -3 -3 -3 -3 -3 -2 -1 -1 -0 0 -0 -0 -0 -1 -1 -2 -2 -2 -2 -2 -2
-0 -0 -0 -0 -0 -0 -1 -2 -1 -0 0 -0 -0 0 1 1 1 -0 -1 -1 -1 -0 -1 -1 -0 -0 -0 -0 -0 -0 -0 -0 -1 -1 -1 -0 -0 -0 -1 -1 -0 -0 -1 -1 -1 -1 -1 -1 -1 -1 -1 -2 -2 -2 -2 -2 -2 -2 -2 -1 -1 -1 -1 -2 -2 -2 -2 -2 -2 -2 -2 -2 -2 -2 -2 -2 -2 -2 -2 -2 -3 -3 -3 -4 -4 -4 -3 -2 -2 -1 -1 -0 -0 -0 0 -1 -2 -2 -2 -2 -1 -1 -2
-0 -0 0 0 -0 -0 -1 -1 -0 0 0 -0 -0 -0 1 1 1 0 -1 -1 -1 -1 -1 -1 -1 -0 -0 -0 -0 -0 -0 -0 -0 -1 -1 -0 -0 -0 -0 -1 -0 -0 -1 -1 -1 -1 -1 -1 -1 -1 -1 -2 -2 -2 -2 -2 -2 -2 -2 -1 -1 -1 -1 -2 -2 -2 -2 -2 -2 -2 -2 -2 -2 -2 -2 -2 -2 -2 -2 -3 -3 -3 -3 -4 -4 -4 -4 -3 -2 -1 -1 -0 -0 -0 -0 -1 -1 -2 -2 -2 -1 -1 -3
-0 0 0 0 -0 -0 -1 -0 -0 0 0 -0 -0 0 1 1 0 -0 -1 -1 -1 -1 -1 -0 -0 -1 -0 -0 -0 -0 -0 0 -0 -1 -1 -0 -0 -0 -0 -0 -0 -0 -1 -1 -0 -1 -1 -1 -1 -1 -1 -2 -2 -2 -2 -2 -2 -2 -2 -1 -1 -1 -1 -1 -2 -2 -2 -2 -2 -2 -2 -2 -2 -2 -2 -2 -2 -2 -2 -3 -3 -3 -3 -4 -4 -4 -4 -4 -3 -2 -1 -1 -1 -1 -0 -0 -1 -2 -2 -3 -2 -1 -2
-0 -0 0 -0 -0 -0 -0 -0 0 1 1 0 0 0 1 0 0 -0 -0 -0 -0 -0 -0 -0 -1 -1 -1 -1 -0 -0 0 0 -0 -1 -0 0 -0 -0 -1 -0 -0 -0 -1 -0 -0 -1 -1 -1 -1 -1 -1 -1 -2 -2 -2 -3 -2 -2 -2 -2 -2 -2 -1 -1 -2 -2 -2 -2 -2 -3 -2 -2 -2 -2 -2 -2 -2 -2 -2 -3 -3 -3 -3 -3 -4 -4 -4 -4 -3 -2 -1 -1 -1 -1 -1 -0 -0 -1 -1 -2 -2 -1 -2
-0 -0 -0 -0 -0 -0 -0 0 1 2 1 1 0 -0 0 0 0 0 -0 -0 0 0 1 -0 -1 -1 -1 -1 -1 -0 0 0 -0 -1 0 1 0 -1 -1 -0 -0 -0 -1 -0 -0 -1 -1 -1 -0 -1 -1 -1 -1 -2 -2 -2 -2 -2 -2 -2 -2 -2 -1 -1 -1 -1 -2 -2 -2 -2 -2 -2 -2 -2 -2 -2 -2 -2 -2 -2 -3 -3 -3 -3 -4 -4 -4 -4 -3 -2 -1 -1 -1 -1 -1 -0 -0 -0 -1 -2 -2 -2 -3
0 -0 -0 -0 -0 -0 0 1 2 2 2 1 -0 -0 1 0 0 0 0 -0 0 1 0 -0 -0 -0 -1 -1 -1 -0 0 -0 -1 -1 0 0 -0 -1 0 0 -0 -0 -0 0 -0 -1 -1 -0 -0 -1 -1 -1 -1 -2 -2 -2 -2 -2 -2 -2 -2 -2 -1 -1 -1 -1 -1 -1 -2 -2 -2 -2 -2 -2 -2 -2 -2 -2 -2 -2 -2 -3 -3 -3 -3 -3 -3 -3 -3 -2 -1 -0 -0 -0 -1 -1 -0 0 -0 -1 -1 -2 -2
0 -0 -1 -0 -0 0 2 2 2 2 2 1 -0 0 1 1 -0 -0 -0 -0 0 0 0 0 0 -0 -1 -0 -0 -0 -0 -0 -0 -1 -0 -0 -0 -0 1 0 -0 -0 0 0 -0 -1 -0 -0 -1 -1 -1 -1 -1 -2 -2 -2 -2 -2 -2 -2 -2 -2 -2 -1 -1 -1 -1 -1 -1 -1 -1 -2 -2 -1 -1 -1 -2 -2 -2 -2 -2 -2 -2 -3 -3 -3 -3 -2 -2 -2 -1 -0 -0 -0 -0 -1 -1 -0 0 -1 -1 -1 -2
0 -0 -0 -0 0 1 3 2 2 2 2 1 0 0 0 -0 -0 -1 -0 0 0 0 1 1 0 -1 -1 0 0 0 -0 0 -0 -1 -1 -0 -0 0 1 0 -0 -0 -0 -0 -0 -1 -1 -1 -1 -1 -1 -1 -2 -2 -2 -2 -2 -2 -2 -2 -2 -2 -2 -2 -1 -1 -1 -1 -1 -1 -1 -1 -1 -1 -1 -1 -1 -1 -1 -2 -2 -2 -2 -2 -2 -2 -2 -2 -2 -1 -1 -1 -0 -0 -0 -0 -1 -0 0 0 0 -0 -1
0 1 0 0 1 2 3 2 2 3 2 1 1 0 0 -1 -0 -0 0 0 0 0 0 0 0 -0 -1 0 0 0 0 0 -0 -0 -1 -0 0 1 1 0 -0 -0 -0 -0 -1 -1 -1 -0 -1 -1 -1 -1 -2 -2 -2 -2 -2 -2 -2 -2 -2 -2 -2 -2 -2 -2 -1 -2 -2 -1 -1 -1 -1 -1 -1 -1 -1 -1 -2 -2 -2 -2 -2 -2 -2 -2 -2 -2 -2 -1 -1 -1 -1 -1 -0 0 -0 -1 -1 0 0 0 0
1 1 1 1 1 2 3 3 3 2 2 1 1 1 0 -1 0 1 1 1 0 -0 -1 -0 0 0 -0 -1 -1 -0 0 -0 -0 0 0 0 1 1 1 -0 -0 -1 -0 -1 -1 -1 -0 -0 -0 -0 -1 -2 -2 -2 -1 -1 -1 -2 -2 -2 -2 -2 -2 -2 -2 -2 -2 -2 -2 -2 -1 -1 -1 -1 -1 -1 -2 -2 -2 -2 -2 -2 -2 -2 -2 -2 -2 -2 -2 -1 -1 -2 -2 -1 -1 -0 -1 -1 -1 -1 -0 0 0
1 1 1 1 2 2 3 3 3 2 2 1 1 1 0 0 1 2 1 1 0 -0 -2 -1 0 0 -1 -1 -1 -1 -0 -0 1 1 2 1 1 0 0 -0 -0 -0 -1 -1 -1 -1 -0 -0 -0 -0 -1 -2 -2 -1 -1 -1 -1 -1 -2 -2 -2 -2 -1 -1 -1 -2 -2 -2 -2 -2 -2 -1 -1 -1 -1 -1 -1 -2 -1 -2 -2 -2 -2 -2 -2 -2 -2 -2 -2 -2 -2 -2 -2 -1 -1 -1 -1 -1 -1 -2 -1 -1 -0
1 2 1 1 2 3 2 3 3 3 2 1 1 1 1 1 1 1 1 1 0 -0 -2 -1 -0 0 -1 -2 -1 -1 -0 1 2 2 2 1 0 0 -0 -1 -0 -0 -1 -1 -1 -0 -0 -0 -0 -1 -1 -2 -1 -1 -1 -1 -1 -1 -1 -2 -2 -1 -1 -1 -1 -2 -2 -2 -2 -2 -2 -1 -1 -1 -1 -1 -1 -1 -1 -1 -1 -2 -2 -2 -2 -2 -2 -2 -2 -2 -2 -2 -2 -2 -1 -1 -1 -1 -1 -2 -2 -2 -1
2 2 1 1 2 3 3 4 4 3 2 2 1 1 0 1 1 1 1 0 0 -0 -1 -1 -0 -0 -1 -0 -0 -0 -0 1 2 2 1 -0 -0 -0 -0 -0 -0 -0 -1 -1 -0 0 -0 -0 -1 -1 -1 -1 -1 -1 -1 -1 -1 -1 -2 -2 -1 -1 -1 -1 -1 -2 -2 -2 -2 -2 -2 -2 -2 -1 -2 -2 -2 -2 -1 -1 -1 -2 -2 -2 -2 -2 -2 -2 -2 -2 -2 -2 -2 -2 -2 -1 -1 -1 -1 -1 -1 -1 -2
2 2 1 2 3 4 4 4 3 3 2 2 1 0 -0 0 1 1 0 1 1 0 1 2 1 -0 0 1 1 0 0 1 2 1 0 -0 -0 -0 -1 -1 -1 -1 -2 -1 -0 -0 0 -0 -1 -1 -1 -1 -1 -1 -0 -0 -1 -2 -3 -2 -1 -1 -2 -1 -1 -1 -1 -2 -2 -2 -2 -2 -2 -2 -2 -2 -3 -3 -2 -2 -1 -2 -2 -2 -3 -3 -3 -2 -2 -2 -2 -2 -1 -1 -1 -1 -1 -1 -1 -1 -1 -1 -2
2 2 1 2 3 4 3 3 3 3 2 1 -0 -1 -2 1 1 1 1 3 2 1 3 5 3 1 1 1 0 0 1 1 1 2 2 1 -0 -1 -1 -1 -2 -2 -1 -1 -0 -0 -0 -0 -1 -1 -0 -0 -0 -1 -0 -0 -1 -2 -3 -1 -1 -1 -2 -1 -1 -1 -1 -2 -2 -2 -2 -2 -2 -2 -2 -3 -3 -3 -3 -2 -2 -1 -1 -2 -2 -2 -2 -2 -2 -2 -2 -1 -1 -1 -1 -1 -1 -1 -1 -1 -1 -1 -2
2 2 1 2 3 3 2 2 3 2 1 -0 -1 -1 0 3 2 2 3 4 4 3 4 4 3 2 1 -0 -1 0 2 1 2 3 4 1 -1 -2 -1 -2 -3 -3 -1 -0 0 -0 -1 -1 -1 -1 -0 -0 -0 -0 -0 -0 -1 -2 -2 -2 -2 -2 -1 -1 -1 -1 -2 -2 -3 -2 -2 -2 -2 -2 -2 -3 -3 -3 -3 -3 -3 -2 -1 -1 -1 -2 -2 -2 -2 -2 -1 -1 -1 -1 -1 -1 -0 -0 -0 -0 -1 -2 -3
2 1 1 2 2 1 1 2 2 2 -0 -1 -0 1 3 3 2 2 3 3 3 4 4 1 1 1 2 -2 -2 -0 4 3 4 5 4 -1 -2 -2 -3 -3 -2 -1 -1 0 0 -0 -2 -2 -3 -2 -0 -1 -0 -0 -0 -0 -1 -2 -2 -2 -2 -2 -1 -1 -1 -1 -2 -3 -3 -3 -2 -2 -2 -2 -3 -3 -3 -4 -3 -3 -3 -3 -2 -2 -2 -2 -2 -2 -2 -1 -1 -2 -2 -1 -1 -1 -1 -1 -1 -1 -1 -2 -3
1 1 -0 0 0 0 -0 2 2 1 -0 1 1 2 3 2 1 1 2 2 1 2 4 -0 -1 0 2 -1 -2 -0 6 4 5 4 1 -6 -4 -0 -0 -0 -0 -1 -4 -1 -1 -2 -1 -3 -4 -3 -1 -1 -1 -0 0 -0 -1 -2 -2 -2 -2 -2 -1 -1 -1 -1 -2 -3 -3 -3 -2 -2 -2 -3 -3 -4 -4 -4 -4 -4 -3 -3 -3 -3 -3 -3 -3 -3 -2 -2 -3 -3 -3 -3 -2 -2 -2 -2 -1 -2 -2 -2 -3
-0 0 0 -0 -1 -1 1 2 1 0 2 2 1 0 2 2 1 0 1 1 1 1 3 1 0 -0 1 1 0 1 4 5 4 1 -4 -5 -1 3 5 6 4 -1 -6 -3 -5 -7 -1 -4 -5 -4 -2 -2 -1 -0 0 0 -1 -2 -2 -2 -3 -2 -2 -1 -1 -2 -3 -4 -4 -3 -2 -2 -2 -3 -3 -4 -4 -4 -4 -4 -4 -4 -4 -4 -5 -5 -5 -5 -5 -5 -5 -6 -5 -5 -4 -4 -3 -2 -2 -2 -2 -2 -2
-1 -0 0 -0 -1 -0 3 1 0 1 4 2 0 -0 1 2 1 0 2 2 1 1 2 2 3 3 -0 1 2 1 -0 3 2 -0 -2 2 5 7 8 7 3 -2 -4 -2 -5 -8 -6 -4 -5 -5 -3 -1 -1 -1 -1 -1 -2 -3 -2 -3 -3 -2 -2 -2 -2 -3 -4 -4 -3 -2 -2 -3 -3 -3 -3 -4 -4 -4 -4 -4 -4 -4 -4 -5 -6 -6 -7 -7 -7 -7 -8 -8 -8 -7 -6 -5 -4 -3 -2 -2 -2 -1 -1
-1 -0 1 0 1 2 2 0 1 2 3 2 1 1 1 1 1 1 2 1 1 1 4 3 5 6 1 -2 -1 0 -1 2 3 3 4 4 5 6 5 -1 -5 -5 2 3 -0 -7 -17 -4 -2 -5 -5 -0 -0 -2 -3 -3 -3 -2 -2 -3 -2 -2 -2 -3 -3 -3 -4 -4 -3 -2 -2 -2 -2 -2 -3 -4 -4 -4 -4 -4 -4 -4 -4 -5 -6 -7 -7 -8 -8 -8 -8 -8 -8 -8 -7 -6 -5 -4 -3 -2 -2 -1 -1
-0 1 2 2 2 2 0 1 2 3 2 3 3 1 -0 -0 -0 0 2 1 1 3 6 4 4 4 1 -2 -2 0 2 3 3 4 5 3 2 1 -1 -2 1 4 6 4 -1 -9 -22 -6 -2 -4 -6 0 -0 -3 -5 -4 -3 -2 -2 -2 -2 -3 -3 -4 -4 -4 -5 -4 -3 -3 -3 -2 -2 -2 -3 -3 -4 -4 -4 -4 -3 -3 -4 -4 -5 -6 -7 -7 -7 -7 -8 -8 -7 -6 -6 -5 -5 -4 -4 -4 -3 -3 -3
0 1 1 1 1 1 0 2 2 1 2 2 1 -0 -2 -1 -0 1 2 2 3 3 3 2 1 0 1 1 1 1 4 2 2 3 5 3 2 1 0 4 5 4 1 -1 -7 -13 -10 -2 -1 -5 -8 -1 -1 -4 -5 -2 -1 -2 -2 -2 -2 -3 -4 -4 -4 -5 -4 -3 -3 -3 -3 -2 -3 -3 -3 -3 -3 -3 -3 -3 -3 -3 -3 -3 -4 -5 -5 -5 -5 -6 -6 -6 -6 -5 -4 -4 -4 -5 -5 -4 -4 -4 -4
1 0 -1 0 1 1 2 1 1 1 1 1 0 -0 -1 0 1 2 1 2 1 0 0 2 1 -0 1 5 5 4 3 1 1 2 5 3 3 3 3 1 -3 -6 -8 -7 -6 -3 3 4 1 -4 -7 -2 -2 -4 -3 -1 -1 -1 -2 -2 -2 -3 -4 -4 -4 -5 -4 -4 -3 -3 -2 -2 -3 -4 -3 -3 -3 -3 -2 -2 -2 -2 -2 -2 -3 -3 -4 -4 -4 -4 -4 -5 -5 -5 -5 -5 -5 -6 -6 -6 -6 -6 -5
0 -0 -1 1 2 2 2 1 1 1 1 1 1 1 0 2 1 0 -1 1 0 0 3 4 2 1 1 6 7 5 2 -2 -0 3 6 3 2 1 1 -0 0 1 -1 -2 1 6 5 4 -1 -4 -1 0 -0 -1 -0 -1 -2 -1 -2 -2 -2 -2 -3 -4 -4 -5 -5 -5 -4 -3 -2 -3 -4 -4 -3 -3 -3 -2 -2 -2 -2 -2 -2 -2 -3 -3 -3 -3 -3 -3 -4 -4 -5 -6 -6 -6 -7 -7 -7 -7 -7 -6 -5
0 1 1 1 2 2 1 1 2 2 1 2 3 2 0 -0 -0 0 2 2 2 4 7 3 1 1 3 6 7 5 -1 -4 -1 4 6 3 -0 -1 3 3 4 4 3 2 3 3 2 1 -2 -3 3 1 -0 -0 3 -1 -2 -2 -2 -1 -1 -2 -3 -4 -4 -5 -5 -6 -5 -4 -4 -4 -4 -3 -3 -3 -2 -2 -2 -2 -2 -2 -3 -3 -3 -3 -3 -3 -3 -3 -3 -4 -4 -5 -5 -6 -6 -7 -7 -6 -5 -4 -4
1 2 2 1 2 2 2 2 2 2 2 3 2 0 -2 -2 0 3 6 3 4 5 5 1 0 2 6 4 4 2 -3 -3 1 6 7 2 -4 -4 6 3 0 -1 1 2 3 3 2 -1 -1 2 5 -0 -0 1 2 1 0 -1 -2 -1 -1 -1 -3 -4 -5 -5 -6 -6 -6 -5 -6 -5 -4 -3 -3 -3 -3 -3 -3 -3 -3 -3 -3 -3 -4 -4 -4 -4 -3 -3 -3 -2 -2 -2 -2 -3 -4 -4 -5 -4 -4 -3 -3
2 2 2 1 1 2 3 2 2 2 2 3 1 -2 -1 0 2 4 6 2 3 4 3 2 3 4 3 2 1 -1 -2 1 4 5 6 -0 -4 -3 6 1 -2 -1 4 3 4 4 4 1 2 3 2 0 1 2 1 1 2 2 -0 -0 -1 -2 -3 -4 -4 -5 -7 -6 -6 -5 -6 -5 -4 -4 -3 -2 -2 -3 -3 -4 -4 -4 -4 -4 -4 -4 -4 -4 -4 -3 -3 -2 -2 -1 -1 -2 -3 -4 -4 -4 -3 -3 -3
Height
1579 1579 1579 1579 1579 1579 1579 1578 1578 1578 1578 1578 1578 1578 1578 1578 1578 1578 1578 1577 1577 1577 1577 1577 1577 1577 1577 1576 1576 1576 1576 1576 1575 1575 1575 1575 1575 1574 1574 1574 1574 1573 1573 1573 1572 1572 1572 1571 1571 1570 1570 1569 1569 1569 1568 1568 1568 1567 1567 1566 1566 1565 1565 1565 1566 1566 1566 1566 1565 1565 1564 1563 1563 1563 1562 1562 1562 1561 1561 1560 1560 1559 1559 1558 1558 1558 1558 1558 1558 1558 1557 1557 1557 1556 1556 1555 1555 1554 1554 1554 1553 1553 1553
1579 1579 1579 1579 1578 1578 1578 1578 1578 1578 1578 1578 1578 1578 1578 1578 1578 1577 1577 1577 1577 1577 1577 1577 1577 1577 1576 1576 1576 1576 1576 1576 1575 1575 1575 1575 1575 1574 1574 1574 1574 1573 1573 1573 1572 1572 1572 1571 1571 1570 1570 1570 1569 1569 1568 1568 1568 1567 1566 1566 1565 1565 1564 1565 1565 1565 1565 1565 1565 1564 1563 1563 1563 1563 1562 1562 1561 1561 1560 1560 1559 1559 1559 1558 1558 1558 1558 1557 1557 1557 1557 1556 1556 1556 1555 1555 1554 1554 1554 1553 1553 1553 1552
1579 1579 1578 1578 1578 1578 1578 1578 1578 1578 1578 1578 1578 1577 1577 1577 1577 1577 1577 1577 1577 1577 1577 1577 1577 1576 1576 1576 1576 1576 1576 1576 1575 1575 1575 1575 1574 1574 1574 1574 1574 1573 1573 1573 1572 1572 1572 1571 1571 1570 1570 1570 1569 1569 1568 1568 1568 1567 1566 1566 1565 1565 1564 1565 1565 1565 1565 1565 1564 1564 1563 1563 1562 1562 1562 1561 1561 1561 1560 1560 1559 1559 1558 1558 1558 1557 1557 1557 1556 1556 1556 1556 1555 1555 1555 1554 1554 1554 1553 1553 1553 1552 1552
1578 1578 1578 1578 1578 1578 1578 1578 1578 1578 1577 1577 1577 1577 1577 1577 1577 1577 1577 1577 1577 1577 1576 1576 1576 1576 1576 1576 1576 1576 1576 1575 1575 1575 1575 1575 1574 1574 1574 1574 1573 1573 1573 1573 1573 1572 1572 1571 1571 1571 1570 1570 1569 1569 1568 1568 1568 1567 1566 1566 1565 1565 1564 1564 1564 1564 1564 1564 1564 1563 1563 1562 1562 1561 1561 1561 1560 1560 1560 1559 1559 1558 1558 1558 1557 1557 1556 1556 1556 1556 1555 1555 1555 1554 1554 1554 1553 1553 1553 1553 1552 1552 1551
1578 1578 1578 1578 1578 1578 1577 1577 1577 1577 1577 1577 1577 1577 1577 1577 1577 1577 1577 1576 1576 1576 1576 1576 1576 1576 1576 1576 1576 1576 1575 1575 1575 1575 1575 1574 1574 1574 1574 1574 1573 1573 1573 1573 1573 1572 1572 1571 1571 1571 1570 1570 1569 1569 1568 1568 1568 1567 1566 1566 1565 1565 1564 1564 1564 1564 1563 1563 1563 1563 1562 1562 1561 1561 1560 1560 1560 1559 1559 1559 1558 1558 1558 1557 1557 1557 1556 1556 1555 1555 1555 1554 1554 1554 1553 1553 1553 1553 1552 1552 1552 1551 1551
1578 1578 1578 1578 1577 1577 1577 1577 1577 1577 1577 1577 1577 1577 1577 1576 1576 1576 1576 1576 1576 1576 1576 1576 1576 1576 1576 1576 1575 1575 1575 1575 1575 1575 1574 1574 1574 1574 1574 1573 1573 1573 1573 1573 1572 1572 1572 1571 1571 1570 1570 1570 1569 1569 1568 1568 1567 1567 1566 1566 1565 1565 1564 1564 1564 1563 1563 1563 1563 1562 1562 1561 1561 1560 1560 1559 1559 1559 1558 1558 1558 1557 1557 1557 1556 1556 1556 1555 1555 1554 1554 1553 1553 1553 1553 1553 1552 1552 1552 1551 1551 1551 1550
1578 1578 1577 1577 1577 1577 1577 1577 1577 1576 1576 1576 1576 1576 1576 1576 1576 1576 1576 1576 1576 1576 1576 1576 1575 1575 1575 1575 1575 1575 1575 1575 1575 1574 1574 1574 1574 1574 1573 1573 1573 1573 1573 1572 1572 1572 1572 1571 1571 1570 1570 1569 1569 1569 1568 1568 1567 1567 1566 1566 1565 1565 1564 1564 1563 1563 1563 1562 1562 1562 1561 1561 1560 1560 1559 1559 1559 1558 1558 1558 1557 1557 1556 1556 1556 1555 1555 1555 1554 1554 1553 1553 1553 1553 1552 1552 1552 1551 1551 1551 1550 1550 1550
1577 1577 1577 1577 1577 1576 1576 1576 1576 1576 1576 1576 1576 1576 1576 1576 1576 1575 1575 1575 1575 1575 1575 1575 1575 1575 1575 1575 1575 1575 1575 1575 1574 1574 1574 1574 1574 1573 1573 1573 1573 1573 1572 1572 1572 1572 1571 1571 1571 1570 1570 1569 1569 1568 1568 1568 1567 1567 1566 1566 1565 1564 1564 1563 1563 1563 1563 1562 1562 1561 1561 1560 1560 1559 1559 1559 1558 1558 1558 1557 1557 1556 1556 1556 1555 1555 1554 1554 1554 1553 1553 1553 1552 1552 1552 1551 1551 1551 1550 1550 1550 1549 1549
1577 1577 1577 1576 1576 1576 1576 1576 1576 1576 1575 1575 1575 1575 1575 1575 1575 1575 1575 1575 1575 1575 1575 1575 1575 1575 1575 1575 1574 1574 1574 1574 1574 1574 1574 1574 1573 1573 1573 1573 1573 1572 1572 1572 1572 1571 1571 1571 1570 1570 1570 1569 1569 1568 1568 1568 1567 1566 1566 1565 1565 1564 1564 1563 1563 1562 1562 1562 1561 1561 1560 1560 1559 1559 1559 1558 1558 1557 1557 1557 1556 1556 1555 1555 1555 1554 1554 1553 1553 1553 1552 1552 1552 1551 1551 1551 1550 1550 1550 1549 1549 1549 1548
1577 1576 1576 1576 1576 1576 1575 1575 1575 1575 1575 1575 1575 1575 1574 1574 1574 1574 1574 1574 1574 1574 1574 1574 1574 1574 1574 1574 1574 1574 1574 1574 1574 1574 1573 1573 1573 1573 1573 1573 1572 1572 1572 1571 1571 1571 1571 1570 1570 1570 1569 1569 1568 1568 1568 1567 1567 1566 1566 1565 1565 1564 1563 1563 1562 1562 1562 1561 1561 1560 1560 1559 1559 1558 1558 1558 1557 1557 1556 1556 1556 1555 1555 1555 1554 1554 1554 1553 1553 1552 1552 1552 1551 1551 1551 1550 1550 1549 1549 1549 1548 1548 1548
1576 1576 1576 1576 1575 1575 1575 1575 1574 1574 1574 1574 1574 1574 1574 1574 1574 1574 1574 1574 1574 1574 1574 1574 1574 1574 1574 1574 1574 1574 1574 1573 1573 1573 1573 1573 1573 1573 1572 1572 1572 1571 1571 1571 1571 1570 1570 1570 1569 1569 1569 1568 1568 1568 1567 1567 1566 1566 1565 1565 1564 1564 1563 1563 1562 1561 1561 1561 1560 1560 1559 1559 1558 1558 1558 1557 1557 1556 1556 1555 1555 1555 1554 1554 1554 1553 1553 1553 1552 1552 1552 1551 1551 1550 1550 1550 1549 1549 1549 1548 1548 1548 1547
1576 1575 1575 1575 1575 1574 1574 1574 1574 1574 1573 1573 1573 1573 1573 1573 1573 1573 1573 1573 1573 1573 1573 1573 1573 1573 1573 1573 1573 1573 1573 1573 1573 1573 1573 1573 1572 1572 1572 1572 1571 1571 1571 1570 1570 1570 1569 1569 1569 1569 1568 1568 1568 1567 1567 1566 1566 1565 1565 1564 1564 1563 1563 1562 1561 1561 1560 1560 1560 1559 1559 1558 1558 1558 1557 1557 1556 1556 1555 1555 1555 1554 1554 1553 1553 1553 1553 1552 1552 1552 1551 1551 1550 1550 1550 1549 1549 1548 1548 1548 1547 1547 1547
1575 1575 1575 1574 1574 1574 1573 1573 1573 1573 1573 1573 1573 1573 1573 1573 1573 1573 1573 1573 1573 1573 1573 1573 1573 1573 1573 1573 1573 1573 1573 1573 1572 1572 1572 1572 1572 1572 1571 1571 1571 1570 1570 1570 1569 1569 1569 1568 1568 1568 1568 1568 1567 1567 1566 1566 1565 1565 1564 1564 1563 1563 1562 1561 1561 1560 1560 1559 1559 1558 1558 1558 1558 1557 1557 1556 1556 1555 1555 1554 1554 1554 1553 1553 1553 1553 1552 1552 1551 1551 1551 1550 1550 1550 1549 1549 1549 1548 1548 1547 1547 1546 1546
1574 1574 1574 1573 1573 1573 1573 1573 1573 1572 1572 1572 1573 1573 1573 1573 1572 1572 1572 1572 1572 1572 1573 1573 1573 1573 1573 1572 1572 1572 1572 1572 1572 1572 1571 1571 1571 1571 1571 1570 1570 1570 1569 1569 1568 1568 1568 1568 1567 1567 1567 1567 1566 1566 1566 1565 1564 1564 1563 1563 1562 1562 1561 1560 1560 1559 1559 1558 1558 1558 1557 1557 1557 1556 1556 1556 1555 1555 1554 1554 1553 1553 1553 1553 1553 1552 1552 1551 1551 1550 1550 1550 1549 1549 1549 1549 1548 1548 1548 1547 1547 1546 1545
1574 1573 1573 1573 1573 1572 1572 1572 1572 1572 1572 1572 1572 1572 1572 1572 1572 1572 1572 1572 1572 1572 1572 1572 1572 1572 1572 1572 1572 1572 1572 1571 1571 1571 1571 1571 1570 1570 1570 1569 1569 1569 1568 1568 1568 1567 1567 1567 1566 1566 1566 1566 1565 1565 1565 1564 1564 1563 1563 1562 1562 1561 1560 1559 1559 1558 1558 1558 1557 1557 1557 1556 1556 1556 1555 1555 1554 1554 1554 1553 1553 1553 1552 1552 1552 1552 1551 1551 1550 1550 1549 1549 1549 1548 1548 1548 1548 1548 1547 1547 1546 1546 1545
1573 1573 1572 1572 1572 1571 1571 1571 1571 1571 1571 1571 1571 1571 1571 1571 1571 1571 1571 1571 1571 1571 1571 1571 1571 1571 1571 1571 1571 1571 1571 1571 1571 1570 1570 1570 1570 1569 1569 1569 1568 1568 1568 1567 1567 1567 1566 1566 1566 1565 1565 1565 1564 1564 1564 1563 1563 1562 1562 1561 1561 1560 1559 1559 1558 1558 1557 1557 1556 1556 1556 1556 1555 1555 1555 1554 1554 1553 1553 1553 1552 1552 1552 1552 1551 1551 1551 1550 1550 1549 1549 1549 1548 1548 1548 1548 1548 1547 1547 1546 1546 1545 1545
1572 1572 1572 1571 1571 1571 1571 1570 1570 1570 1570 1570 1570 1570 1571 1571 1571 1571 1571 1571 1571 1571 1571 1571 1571 1571 1571 1571 1571 1571 1570 1570 1570 1570 1569 1569 1569 1568 1568 1568 1568 1567 1567 1567 1566 1566 1566 1565 1565 1564 1564 1564 1563 1563 1563 1562 1562 1562 1561 1560 1560 1559 1558 1558 1558 1557 1557 1556 1556 1555 1555 1555 1554 1554 1554 1553 1553 1553 1553 1552 1552 1551 1551 1551 1551 1550 1550 1549 1549 1549 1548 1548 1548 1548 1547 1547 1547 1547 1546 1546 1545 1545 1544
1572 1571 1571 1571 1570 1570 1570 1570 1570 1570 1570 1570 1570 1570 1570 1570 1570 1570 1570 1570 1570 1570 1570 1570 1570 1570 1570 1570 1570 1570 1570 1569 1569 1569 1569 1568 1568 1568 1568 1567 1567 1567 1566 1566 1565 1565 1565 1564 1564 1564 1563 1563 1563 1562 1562 1561 1561 1561 1560 1559 1559 1558 1558 1557 1557 1556 1556 1555 1555 1555 1554 1554 1554 1553 1553 1553 1553 1552 1552 1552 1551 1551 1550 1550 1550 1550 1549 1549 1549 1548 1548 1548 1547 1547 1547 1547 1547 1546 1546 1545 1545 1544 1544
1571 1570 1570 1570 1570 1569 1569 1569 1569 1569 1569 1569 1569 1569 1569 1569 1569 1569 1569 1569 1569 1569 1569 1569 1569 1569 1569 1569 1569 1569 1569 1569 1569 1568 1568 1568 1568 1567 1567 1567 1566 1566 1565 1565 1565 1564 1564 1564 1563 1563 1563 1562 1562 1561 1561 1560 1560 1560 1559 1559 1558 1558 1557 1557 1556 1556 1555 1555 1554 1554 1554 1553 1553 1553 1553 1552 1552 1552 1551 1551 1551 1550 1550 1549 1549 1549 1549 1548 1548 1548 1548 1547 1547 1547 1546 1546 1546 1546 1545 1545 1544 1544 1543
1569 1569 1569 1569 1569 1569 1568 1568 1568 1568 1568 1568 1568 1568 1568 1568 1568 1568 1568 1568 1568 1568 1568 1568 1568 1568 1568 1568 1568 1568 1568 1568 1568 1568 1568 1567 1567 1566 1566 1566 1565 1565 1565 1564 1564 1564 1563 1563 1563 1562 1562 1561 1561 1560 1560 1559 1559 1559 1558 1558 1558 1557 1557 1556 1555 1555 1555 1554 1554 1553 1553 1553 1553 1552 1552 1552 1551 1551 1550 1550 1550 1549 1549 1549 1548 1548 1548 1548 1548 1547 1547 1547 1546 1546 1546 1546 1546 1545 1545 1544 1544 1543 1543
1568 1568 1568 1568 1568 1568 1568 1568 1568 1568 1568 1568 1568 1568 1568 1568 1568 1568 1568 1568 1568 1568 1568 1568 1568 1567 1567 1567 1567 1567 1567 1567 1567 1567 1567 1566 1566 1566 1565 1565 1565 1564 1564 1563 1563 1563 1563 1562 1562 1562 1561 1561 1560 1560 1559 1559 1558 1558 1558 1557 1557 1556 1556 1555 1555 1554 1554 1553 1553 1553 1552 1552 1552 1551 1551 1551 1551 1550 1550 1549 1549 1549 1548 1548 1548 1548 1547 1547 1547 1547 1546 1546 1546 1545 1545 1545 1545 1545 1544 1544 1543 1543 1543
1568 1567 1567 1567 1567 1567 1567 1567 1566 1566 1566 1566 1566 1566 1567 1567 1567 1567 1567 1567 1567 1567 1567 1566 1566 1566 1566 1566 1566 1566 1566 1566 1566 1566 1565 1565 1565 1565 1564 1564 1564 1563 1563 1563 1562 1562 1562 1561 1561 1561 1560 1560 1559 1559 1558 1558 1558 1557 1557 1556 1556 1556 1555 1555 1554 1554 1553 1553 1553 1552 1552 1551 1551 1551 1550 1550 1550 1549 1549 1549 1548 1548 1548 1548 1547 1547 1547 1546 1546 1546 1546 1545 1545 1545 1544 1545 1544 1544 1544 1543 1543 1542 1542
1567 1566 1566 1566 1566 1566 1566 1566 1565 1565 1565 1565 1565 1565 1565 1565 1565 1565 1565 1565 1565 1565 1565 1565 1565 1565 1565 1565 1565 1565 1565 1565 1564 1564 1564 1564 1564 1563 1563 1563 1563 1563 1562 1562 1561 1561 1561 1560 1560 1560 1559 1559 1559 1558 1558 1557 1557 1556 1556 1555 1555 1555 1554 1554 1553 1553 1553 1552 1552 1551 1551 1551 1550 1550 1550 1549 1549 1549 1548 1548 1548 1548 1547 1547 1547 1546 1546 1546 1545 1545 1545 1544 1544 1544 1544 1544 1543 1543 1543 1542 1542 1541 1541
1566 1565 1565 1565 1565 1565 1564 1564 1564 1564 1564 1564 1564 1564 1564 1564 1564 1564 1564 1564 1564 1564 1564 1564 1564 1564 1564 1564 1564 1564 1563 1563 1563 1563 1563 1563 1563 1562 1562 1562 1562 1562 1561 1561 1560 1560 1560 1559 1559 1559 1558 1558 1558 1557 1557 1556 1556 1555 1555 1554 1554 1554 1553 1553 1553 1552 1552 1551 1551 1551 1550 1550 1550 1549 1549 1549 1548 1548 1548 1547 1547 1547 1546 1546 1546 1546 1545 1545 1545 1544 1544 1544 1543 1543 1543 1543 1543 1542 1542 1541 1541 1541 1540
1564 1564 1564 1564 1564 1563 1563 1563 1563 1563 1563 1563 1563 1563 1563 1563 1563 1563 1563 1563 1563 1563 1563 1563 1563 1563 1563 1563 1563 1563 1562 1562 1562 1562 1562 1562 1561 1561 1561 1561 1561 1560 1560 1560 1559 1559 1559 1558 1558 1558 1557 1557 1557 1556 1556 1555 1555 1554 1554 1554 1553 1553 1553 1552 1552 1551 1551 1551 1550 1550 1549 1549 1549 1548 1548 1548 1548 1548 1547 1547 1546 1546 1546 1545 1545 1545 1544 1544 1544 1543 1543 1543 1543 1542 1542 1542 1542 1541 1541 1540 1540 1540 1539
1563 1563 1563 1563 1563 1562 1562 1562 1562 1562 1562 1562 1562 1562 1562 1562 1562 1562 1562 1562 1562 1562 1562 1562 1562 1562 1562 1562 1561 1561 1561 1561 1561 1560 1560 1560 1560 1560 1560 1560 1559 1559 1559 1559 1558 1558 1558 1557 1557 1557 1556 1556 1556 1555 1555 1554 1554 1553 1553 1553 1552 1552 1552 1551 1551 1551 1550 1550 1549 1549 1549 1548 1548 1548 1548 1547 1547 1547 1546 1546 1546 1545 1545 1544 1544 1544 1543 1543 1543 1543 1543 1542 1542 1542 1541 1541 1541 1540 1540 1539 1539 1539 1538
1561 1561 1561 1561 1561 1561 1561 1561 1561 1561 1561 1560 1560 1560 1560 1560 1560 1561 1561 1561 1561 1561 1560 1560 1560 1560 1560 1560 1560 1560 1560 1559 1559 1559 1559 1559 1559 1559 1558 1558 1558 1558 1558 1558 1557 1557 1557 1556 1556 1556 1555 1555 1554 1554 1554 1553 1553 1553 1552 1552 1551 1551 1551 1550 1550 1550 1549 1549 1548 1548 1548 1548 1547 1547 1547 1546 1546 1546 1546 1545 1545 1544 1544 1543 1543 1543 1543 1542 1542 1542 1542 1541 1541 1541 1541 1541 1540 1540 1539 1538 1538 1538 1537
1559 1559 1560 1560 1560 1559 1559 1559 1559 1559 1559 1559 1559 1558 1558 1559 1559 1559 1559 1559 1559 1559 1559 1559 1559 1559 1559 1558 1558 1558 1558 1558 1558 1558 1558 1558 1558 1557 1557 1557 1557 1557 1557 1556 1556 1556 1555 1555 1555 1554 1554 1554 1553 1553 1553 1553 1552 1552 1551 1551 1550 1550 1550 1549 1549 1549 1548 1548 1548 1548 1547 1547 1546 1546 1546 1545 1545 1545 1545 1544 1544 1543 1543 1543 1542 1542 1542 1541 1541 1541 1541 1540 1540 1540 1540 1539 1539 1538 1538 1538 1537 1537 1536
1557 1558 1558 1558 1558 1558 1558 1558 1558 1558 1558 1558 1558 1558 1557 1558 1558 1558 1558 1558 1558 1558 1558 1558 1558 1558 1557 1557 1557 1557 1557 1557 1557 1556 1556 1556 1556 1556 1556 1555 1555 1555 1555 1555 1555 1554 1554 1554 1553 1553 1553 1553 1552 1552 1552 1551 1551 1551 1550 1550 1549 1549 1548 1548 1548 1548 1547 1547 1547 1546 1546 1546 1545 1545 1545 1544 1544 1544 1543 1543 1543 1543 1542 1542 1541 1541 1541 1540 1540 1540 1540 1539 1539 1539 1539 1538 1538 1538 1537 1537 1536 1536 1535
1555 1556 1556 1556 1556 1556 1557 1557 1557 1557 1557 1557 1557 1557 1556 1556 1556 1556 1556 1556 1556 1556 1556 1556 1556 1556 1556 1556 1556 1556 1555 1555 1555 1555 1555 1555 1554 1554 1554 1554 1554 1553 1553 1553 1553 1553 1553 1552 1552 1552 1552 1551 1551 1551 1550 1550 1550 1550 1549 1549 1548 1548 1548 1547 1547 1546 1546 1546 1546 1545 1545 1545 1544 1544 1544 1543 1543 1543 1543 1542 1542 1542 1541 1541 1540 1540 1539 1539 1539 1539 1539 1538 1538 1538 1538 1537 1537 1537 1536 1536 1535 1535 1534
1554 1554 1554 1554 1554 1554 1555 1555 1555 1556 1556 1556 1556 1556 1556 1555 1555 1555 1555 1555 1555 1554 1555 1555 1554 1554 1555 1554 1554 1554 1554 1554 1554 1553 1553 1553 1553 1553 1553 1553 1552 1552 1552 1552 1551 1551 1551 1551 1551 1550 1550 1550 1550 1549 1549 1549 1549 1548 1548 1548 1547 1547 1547 1546 1546 1545 1545 1545 1544 1544 1544 1543 1543 1543 1543 1542 1542 1542 1541 1541 1541 1541 1540 1540 1539 1539 1538 1538 1538 1538 1538 1537 1537 1537 1537 1536 1536 1535 1535 1534 1534 1533 1533
1553 1553 1553 1553 1553 1553 1553 1553 1554 1554 1554 1554 1554 1554 1554 1554 1554 1553 1553 1553 1553 1553 1553 1553 1553 1553 1553 1553 1553 1553 1553 1553 1552 1552 1552 1552 1552 1551 1551 1551 1551 1550 1550 1550 1550 1550 1549 1549 1549 1549 1549 1548 1548 1548 1548 1548 1548 1548 1547 1547 1547 1546 1546 1545 1545 1544 1544 1543 1543 1543 1542 1542 1542 1541 1541 1541 1541 1540 1540 1540 1540 1539 1539 1538 1538 1538 1537 1537 1537 1537 1536 1536 1536 1536 1535 1535 1534 1534 1534 1533 1533 1532 1531
1551 1551 1551 1551 1551 1551 1552 1552 1552 1552 1553 1553 1553 1553 1553 1553 1552 1552 1552 1551 1551 1551 1552 1552 1552 1552 1552 1552 1552 1552 1551 1551 1551 1551 1550 1550 1550 1550 1550 1549 1549 1549 1549 1548 1548 1548 1548 1548 1548 1548 1547 1547 1547 1547 1547 1547 1546 1546 1546 1546 1546 1545 1544 1544 1543 1543 1543 1542 1542 1542 1541 1541 1540 1540 1540 1539 1539 1539 1539 1538 1538 1538 1538 1537 1537 1537 1536 1536 1536 1535 1535 1535 1535 1534 1534 1533 1533 1533 1532 1532 1531 1531 1530
1549 1549 1549 1550 1550 1550 1550 1549 1550 1550 1551 1551 1551 1551 1551 1551 1551 1550 1550 1550 1550 1550 1550 1550 1550 1550 1550 1550 1550 1550 1550 1550 1549 1549 1549 1549 1549 1548 1548 1548 1548 1548 1548 1547 1547 1547 1547 1546 1546 1546 1546 1546 1545 1545 1545 1545 1545 1545 1545 1545 1544 1544 1543 1543 1543 1542 1542 1541 1541 1540 1540 1539 1539 1538 1538 1538 1538 1538 1537 1537 1537 1536 1536 1536 1536 1535 1535 1535 1534 1534 1534 1533 1533 1533 1532 1532 1531 1531 1531 1530 1530 1529 1529
1548 1548 1548 1548 1548 1548 1548 1548 1548 1549 1549 1549 1549 1550 1550 1550 1549 1549 1548 1548 1548 1548 1548 1548 1548 1548 1548 1548 1548 1548 1548 1548 1548 1548 1548 1548 1548 1547 1547 1547 1547 1546 1546 1546 1546 1545 1545 1545 1545 1545 1544 1544 1544 1544 1543 1543 1543 1543 1543 1543 1543 1543 1542 1542 1541 1541 1540 1540 1539 1539 1538 1538 1538 1537 1537 1537 1536 1536 1536 1535 1535 1535 1535 1534 1534 1534 1534 1533 1533 1533 1532 1532 1532 1531 1531 1530 1530 1530 1529 1529 1528 1528 1528
1546 1546 1546 1546 1546 1546 1546 1546 1547 1547 1548 1548 1548 1548 1548 1548 1548 1547 1547 1547 1546 1546 1546 1546 1546 1546 1546 1546 1546 1546 1547 1547 1546 1546 1546 1546 1546 1546 1546 1545 1545 1545 1545 1544 1544 1544 1544 1544 1543 1543 1543 1543 1543 1542 1542 1542 1542 1542 1542 1542 1542 1541 1541 1541 1540 1540 1539 1538 1538 1538 1537 1537 1536 1536 1535 1535 1535 1534 1534 1534 1533 1533 1533 1533 1533 1532 1532 1532 1532 1531 1531 1530 1530 1529 1529 1529 1528 1528 1528 1528 1527 1527 1526
1544 1544 1544 1544 1544 1544 1544 1545 1545 1546 1546 1546 1546 1546 1546 1546 1546 1546 1545 1545 1545 1545 1545 1545 1544 1544 1544 1544 1544 1544 1545 1545 1544 1544 1544 1544 1544 1544 1544 1544 1544 1544 1543 1543 1543 1543 1543 1542 1542 1542 1542 1541 1541 1541 1540 1540 1540 1540 1540 1540 1540 1540 1539 1539 1538 1538 1538 1537 1537 1536 1536 1535 1535 1534 1534 1533 1533 1533 1533 1532 1532 1532 1532 1531 1531 1531 1531 1530 1530 1530 1529 1529 1528 1528 1527 1527 1527 1527 1527 1527 1526 1525 1525
1542 1542 1542 1542 1542 1542 1543 1543 1544 1544 1545 1545 1544 1544 1544 1544 1544 1544 1544 1543 1543 1543 1543 1543 1543 1543 1543 1542 1542 1543 1543 1543 1543 1542 1543 1543 1543 1543 1543 1543 1542 1542 1542 1542 1542 1541 1541 1541 1541 1541 1540 1540 1540 1539 1539 1539 1538 1538 1538 1538 1538 1538 1538 1537 1537 1537 1536 1536 1535 1535 1534 1533 1533 1533 1532 1532 1532 1531 1531 1531 1530 1530 1530 1530 1529 1529 1529 1528 1528 1528 1528 1527 1527 1526 1526 1525 1525 1525 1525 1525 1524 1524 1523
1540 1540 1540 1540 1540 1540 1541 1542 1543 1543 1543 1543 1543 1543 1543 1543 1543 1542 1542 1542 1542 1542 1542 1542 1541 1541 1540 1540 1540 1541 1541 1541 1540 1540 1541 1541 1541 1541 1541 1541 1541 1540 1540 1540 1540 1540 1540 1539 1539 1539 1539 1538 1538 1538 1537 1537 1537 1537 1537 1536 1536 1536 1536 1536 1535 1535 1535 1534 1534 1533 1533 1532 1532 1531 1531 1531 1530 1530 1529 1529 1529 1528 1528 1528 1528 1527 1527 1527 1526 1526 1526 1525 1525 1525 1524 1524 1523 1523 1523 1523 1523 1523 1522
1538 1538 1538 1538 1538 1538 1539 1540 1541 1541 1541 1541 1541 1541 1541 1541 1541 1540 1540 1540 1540 1540 1540 1540 1540 1539 1538 1538 1539 1539 1539 1539 1539 1539 1539 1539 1539 1539 1539 1539 1539 1539 1538 1538 1538 1538 1538 1538 1538 1538 1537 1537 1537 1536 1536 1536 1535 1535 1535 1535 1534 1534 1534 1534 1533 1533 1533 1533 1532 1532 1531 1531 1530 1530 1529 1529 1529 1528 1528 1528 1527 1527 1526 1526 1526 1526 1525 1525 1525 1524 1524 1524 1523 1523 1523 1522 1522 1522 1521 1521 1521 1521 1521
1537 1536 1536 1536 1536 1537 1538 1538 1539 1539 1539 1539 1539 1539 1539 1538 1538 1538 1538 1539 1539 1539 1538 1538 1538 1538 1537 1537 1537 1537 1537 1537 1537 1537 1537 1537 1537 1537 1538 1537 1537 1537 1537 1537 1536 1536 1536 1536 1536 1536 1536 1535 1535 1534 1534 1534 1534 1533 1533 1533 1533 1532 1532 1532 1532 1531 1531 1531 1531 1530 1530 1529 1529 1528 1528 1528 1527 1527 1526 1526 1525 1525 1524 1524 1524 1524 1523 1523 1523 1523 1522 1522 1522 1521 1521 1520 1520 1520 1519 1519 1519 1519 1519
1535 1534 1534 1534 1535 1535 1536 1536 1537 1537 1537 1537 1537 1537 1536 1536 1536 1537 1537 1537 1537 1537 1537 1536 1536 1536 1536 1536 1535 1535 1535 1535 1535 1535 1535 1535 1536 1536 1536 1535 1535 1535 1535 1535 1534 1534 1534 1534 1534 1534 1533 1533 1533 1533 1532 1532 1532 1532 1532 1531 1531 1530 1530 1530 1529 1529 1529 1529 1528 1528 1528 1528 1527 1527 1527 1526 1526 1525 1525 1524 1524 1523 1523 1523 1522 1522 1522 1522 1521 1521 1520 1520 1520 1519 1519 1519 1518 1518 1518 1518 1517 1517 1517
1533 1533 1533 1533 1533 1533 1534 1534 1535 1535 1535 1534 1534 1534 1534 1534 1534 1534 1535 1535 1535 1535 1534 1534 1534 1534 1534 1534 1533 1533 1533 1533 1533 1533 1534 1534 1534 1534 1534 1533 1533 1533 1533 1533 1532 1532 1532 1532 1532 1532 1532 1531 1531 1531 1531 1530 1530 1530 1530 1529 1529 1528 1528 1528 1528 1527 1527 1527 1526 1526 1526 1526 1525 1525 1525 1524 1524 1523 1523 1523 1522 1522 1521 1521 1521 1520 1520 1520 1519 1519 1518 1518 1518 1518 1517 1517 1517 1516 1516 1516 1515 1515 1515
1531 1531 1531 1531 1531 1531 1532 1532 1532 1532 1532 1532 1532 1532 1532 1532 1532 1532 1532 1533 1533 1533 1532 1532 1532 1532 1532 1532 1532 1532 1532 1532 1532 1532 1532 1532 1532 1532 1532 1531 1531 1531 1531 1530 1530 1530 1530 1530 1530 1529 1529 1529 1528 1528 1528 1528 1528 1528 1528 1528 1527 1527 1526 1526 1526 1525 1525 1525 1524 1524 1524 1523 1523 1523 1523 1523 1522 1522 1521 1521 1520 1520 1519 1519 1519 1519 1518 1518 1518 1517 1517 1516 1516 1516 1515 1515 1515 1514 1514 1514 1513 1513 1513
1529 1529 1529 1529 1529 1529 1529 1530 1530 1530 1530 1530 1530 1529 1529 1529 1529 1529 1530 1530 1530 1530 1530 1530 1530 1530 1530 1530 1530 1530 1530 1530 1530 1531 1531 1530 1530 1530 1529 1529 1528 1528 1528 1528 1528 1528 1528 1528 1528 1527 1527 1527 1526 1526 1527 1526 1526 1526 1526 1525 1525 1525 1524 1524 1524 1523 1523 1523 1523 1522 1522 1522 1521 1521 1521 1521 1520 1520 1520 1519 1519 1518 1518 1518 1517 1517 1517 1516 1516 1515 1515 1515 1514 1514 1513 1513 1513 1513 1512 1512 1512 1511 1511
1527 1527 1527 1527 1527 1527 1527 1528 1528 1528 1528 1528 1527 1527 1527 1527 1527 1527 1527 1527 1528 1528 1528 1528 1528 1528 1528 1528 1528 1528 1528 1528 1529 1529 1528 1528 1528 1527 1527 1526 1526 1526 1526 1526 1526 1526 1526 1526 1525 1525 1524 1524 1524 1524 1524 1524 1524 1524 1523 1523 1523 1523 1523 1522 1522 1522 1521 1521 1521 1520 1520 1520 1519 1519 1519 1519 1518 1518 1518 1518 1517 1517 1516 1516 1515 1515 1515 1514 1514 1513 1513 1513 1513 1512 1512 1511 1511 1511 1510 1510 1509 1509 1509
1525 1524 1524 1524 1525 1525 1525 1525 1525 1525 1525 1525 1524 1524 1524 1523 1524 1524 1524 1525 1525 1525 1526 1526 1526 1526 1525 1525 1525 1525 1525 1526 1527 1527 1526 1526 1526 1525 1524 1524 1524 1524 1523 1523 1523 1523 1523 1523 1523 1523 1522 1522 1522 1522 1522 1522 1522 1521 1521 1521 1521 1521 1521 1520 1520 1520 1519 1519 1519 1518 1518 1518 1518 1517 1517 1517 1516 1516 1516 1516 1515 1515 1514 1514 1513 1513 1513 1513 1512 1512 1511 1511 1511 1510 1510 1509 1509 1508 1508 1508 1508 1507 1507
1522 1522 1522 1522 1523 1523 1523 1523 1523 1523 1523 1522 1522 1521 1521 1521 1521 1522 1522 1523 1523 1523 1523 1524 1524 1523 1523 1523 1522 1522 1523 1523 1524 1524 1525 1524 1523 1522 1522 1522 1521 1521 1521 1521 1521 1521 1521 1520 1520 1520 1520 1520 1520 1520 1520 1520 1519 1519 1519 1519 1519 1518 1518 1518 1518 1518 1518 1517 1517 1517 1516 1516 1516 1515 1515 1515 1514 1514 1514 1513 1513 1513 1513 1512 1512 1511 1511 1511 1510 1510 1509 1509 1509 1508 1508 1508 1507 1507 1506 1506 1506 1505 1505
1520 1520 1520 1520 1520 1520 1520 1520 1520 1520 1520 1519 1519 1519 1519 1519 1519 1519 1520 1520 1520 1521 1521 1521 1521 1521 1520 1520 1519 1519 1520 1521 1522 1523 1523 1522 1520 1519 1519 1519 1519 1518 1518 1518 1518 1518 1518 1518 1517 1517 1517 1517 1517 1518 1518 1517 1517 1516 1516 1517 1517 1516 1516 1516 1516 1516 1516 1515 1515 1515 1515 1514 1514 1514 1513 1513 1513 1512 1512 1512 1511 1511 1511 1510 1510 1509 1509 1509 1508 1508 1508 1507 1507 1506 1506 1506 1505 1505 1504 1504 1504 1503 1503
1517 1517 1517 1517 1517 1517 1517 1518 1518 1518 1517 1517 1517 1517 1517 1518 1517 1517 1518 1518 1518 1518 1518 1518 1518 1517 1517 1517 1516 1516 1517 1518 1519 1520 1520 1518 1517 1517 1516 1516 1516 1516 1515 1515 1515 1515 1515 1514 1514 1513 1514 1514 1515 1515 1515 1514 1514 1514 1514 1514 1514 1514 1514 1514 1514 1514 1514 1513 1513 1513 1513 1513 1513 1512 1512 1511 1511 1510 1510 1510 1509 1509 1508 1508 1508 1508 1508 1507 1507 1506 1506 1505 1505 1504 1504 1504 1503 1503 1503 1502 1502 1502 1501
1514 1514 1514 1514 1514 1514 1514 1515 1515 1515 1515 1515 1515 1515 1515 1515 1515 1514 1514 1514 1514 1514 1515 1514 1514 1514 1514 1514 1513 1514 1515 1515 1516 1516 1516 1514 1514 1515 1515 1515 1514 1513 1512 1512 1512 1512 1512 1511 1510 1510 1511 1512 1512 1512 1512 1512 1511 1511 1511 1512 1512 1512 1512 1512 1512 1512 1512 1512 1511 1511 1511 1511 1511 1510 1510 1509 1509 1508 1508 1508 1508 1507 1507 1506 1506 1506 1505 1505 1505 1504 1504 1503 1503 1503 1502 1502 1501 1501 1500 1500 1500 1500 1499
1512 1512 1512 1512 1512 1512 1512 1512 1512 1512 1512 1512 1512 1512 1512 1512 1511 1511 1511 1511 1511 1511 1511 1512 1511 1511 1510 1511 1511 1511 1512 1512 1512 1512 1512 1511 1512 1513 1514 1514 1513 1511 1509 1509 1508 1508 1508 1507 1506 1507 1508 1509 1509 1509 1509 1509 1509 1508 1509 1509 1509 1510 1510 1510 1510 1510 1510 1510 1510 1510 1509 1509 1509 1508 1508 1508 1507 1507 1506 1506 1505 1505 1505 1504 1504 1504 1503 1503 1503 1502 1502 1502 1501 1501 1500 1500 1499 1499 1498 1498 1498 1498 1497
1509 1509 1509 1509 1509 1509 1509 1509 1509 1509 1509 1509 1509 1508 1508 1508 1508 1508 1508 1508 1508 1508 1508 1508 1508 1508 1508 1508 1508 1508 1508 1508 1508 1508 1509 1510 1511 1511 1511 1512 1511 1508 1507 1508 1506 1503 1503 1502 1502 1503 1505 1506 1506 1506 1506 1506 1506 1506 1506 1507 1507 1507 1508 1508 1508 1508 1508 1508 1508 1508 1508 1507 1507 1507 1506 1505 1505 1505 1504 1504 1503 1503 1503 1502 1502 1502 1501 1501 1501 1500 1500 1499 1499 1499 1498 1498 1498 1497 1497 1496 1496 1495 1495
1506 1506 1506 1506 1506 1506 1506 1506 1506 1506 1506 1506 1506 1505 1505 1505 1505 1504 1505 1504 1504 1504 1505 1505 1505 1506 1506 1504 1504 1504 1504 1505 1505 1506 1506 1507 1508 1508 1508 1508 1506 1506 1507 1509 1507 1502 1498 1499 1500 1500 1501 1503 1503 1503 1503 1503 1503 1503 1503 1504 1504 1505 1505 1506 1506 1506 1506 1506 1506 1506 1506 1505 1505 1504 1504 1503 1503 1503 1502 1502 1502 1501 1501 1500 1500 1499 1499 1499 1498 1498 1498 1498 1497 1497 1496 1496 1495 1495 1494 1494 1493 1493 1493
1503 1503 1503 1503 1503 1503 1503 1503 1503 1503 1503 1503 1503 1503 1502 1502 1501 1501 1502 1501 1501 1502 1502 1502 1502 1503 1503 1502 1501 1501 1502 1502 1502 1503 1503 1503 1503 1504 1505 1505 1505 1505 1506 1507 1505 1501 1495 1498 1499 1498 1498 1499 1499 1499 1499 1499 1500 1500 1501 1501 1502 1502 1503 1503 1503 1503 1503 1503 1504 1504 1503 1503 1503 1502 1502 1501 1501 1500 1500 1500 1499 1499 1499 1498 1498 1497 1497 1497 1497 1496 1496 1495 1495 1495 1494 1494 1493 1493 1493 1492 1492 1491 1491
1501 1501 1501 1501 1501 1500 1500 1500 1500 1500 1500 1500 1499 1499 1499 1498 1498 1498 1498 1498 1498 1499 1499 1499 1499 1499 1499 1500 1500 1500 1500 1499 1499 1499 1499 1499 1499 1500 1501 1503 1504 1504 1503 1502 1499 1496 1495 1497 1498 1497 1494 1495 1496 1496 1495 1496 1497 1497 1498 1498 1498 1499 1500 1500 1501 1501 1501 1501 1502 1502 1502 1501 1501 1500 1499 1499 1498 1498 1498 1498 1498 1497 1497 1496 1496 1496 1495 1495 1495 1494 1494 1493 1493 1493 1493 1492 1492 1491 1491 1490 1490 1489 1489
1499 1498 1498 1498 1498 1498 1498 1498 1497 1497 1497 1497 1496 1496 1495 1495 1495 1495 1495 1495 1495 1495 1495 1496 1496 1496 1496 1497 1498 1498 1498 1497 1496 1495 1496 1496 1496 1497 1497 1498 1498 1499 1499 1498 1496 1495 1495 1496 1497 1496 1492 1492 1493 1493 1493 1493 1493 1494 1494 1495 1495 1496 1497 1498 1498 1498 1499 1499 1499 1499 1499 1499 1498 1498 1497 1497 1497 1496 1496 1496 1496 1495 1495 1494 1494 1494 1493 1493 1493 1493 1492 1492 1491 1491 1491 1490 1490 1489 1488 1488 1488 1487 1487
1496 1496 1495 1495 1495 1495 1495 1494 1494 1494 1493 1493 1493 1493 1493 1492 1492 1492 1491 1491 1492 1492 1492 1493 1493 1493 1493 1494 1496 1496 1495 1494 1493 1493 1493 1493 1493 1493 1493 1493 1494 1495 1496 1495 1495 1495 1494 1494 1494 1494 1493 1491 1490 1490 1491 1491 1491 1491 1491 1492 1493 1493 1494 1494 1495 1495 1496 1497 1497 1497 1497 1497 1496 1496 1495 1495 1494 1494 1494 1494 1494 1493 1493 1493 1492 1492 1492 1491 1491 1491 1490 1490 1489 1489 1488 1488 1488 1487 1487 1486 1486 1486 1485
1493 1493 1493 1493 1492 1492 1492 1491 1491 1491 1490 1490 1490 1490 1489 1488 1488 1488 1488 1488 1488 1489 1490 1490 1490 1490 1491 1492 1492 1492 1491 1490 1490 1491 1491 1490 1489 1488 1489 1490 1491 1492 1492 1492 1492 1493 1493 1492 1491 1491 1493 1492 1489 1488 1488 1488 1488 1488 1488 1489 1490 1490 1491 1491 1492 1493 1493 1494 1494 1494 1494 1494 1494 1493 1493 1493 1493 1493 1492 1492 1492 1492 1491 1491 1490 1490 1490 1490 1489 1489 1488 1488 1488 1487 1487 1486 1486 1485 1485 1484 1484 1484 1483
1491 1490 1490 1490 1489 1489 1489 1489 1488 1488 1488 1487 1487 1486 1485 1485 1484 1485 1486 1486 1486 1487 1487 1487 1487 1488 1488 1488 1488 1488 1487 1487 1487 1488 1489 1488 1485 1483 1485 1486 1487 1487 1488 1488 1488 1489 1489 1489 1488 1489 1491 1490 1489 1487 1486 1485 1486 1486 1486 1486 1487 1487 1488 1488 1488 1489 1490 1491 1491 1492 1492 1492 1492 1492 1491 1491 1491 1491 1490 1490 1490 1490 1489 1489 1488 1488 1488 1488 1488 1487 1487 1486 1486 1486 1485 1484 1484 1483 1483 1483 1482 1482 1482
1488 1488 1488 1487 1487 1486 1486 1486 1485 1485 1484 1484 1484 1483 1482 1482 1482 1483 1483 1483 1483 1483 1484 1484 1484 1485 1485 1485 1485 1484 1484 1484 1485 1485 1485 1484 1482 1481 1483 1483 1483 1483 1485 1485 1485 1486 1486 1485 1486 1486 1487 1487 1488 1488 1486 1484 1484 1484 1483 1483 1484 1485 1485 1485 1486 1486 1487 1488 1488 1489 1489 1489 1489 1489 1489 1489 1489 1488 1488 1488 1488 1487 1487 1487 1487 1486 1486 1486 1485 1485 1485 1484 1484 1483 1483 1483 1482 1481 1481 1480 1480 1479 1479